Radiation Dose at Monitoring Post of Fukushima Daini Nuclear Power Station
Date,Time,MP-1(microSv/h),MP-2(microSv/h),MP-3(microSv/h),MP-4(microSv/h),MP-5(microSv/h),MP-6(microSv/h),MP-7(microSv/h),Wind Direction,Wind Velocity(m/s),Rain
2019/08/13,00:00,0.194,0.172,0.296,0.278,0.268,0.148,0.091,south,6.8,No
2019/08/13,00:10,0.196,0.172,0.295,0.280,0.269,0.147,0.091,south,7.3,No
2019/08/13,00:20,0.193,0.174,0.296,0.280,0.274,0.148,0.091,south,6.6,No
2019/08/13,00:30,0.191,0.173,0.299,0.279,0.273,0.148,0.090,south,7.3,No
2019/08/13,00:40,0.193,0.172,0.297,0.277,0.270,0.148,0.091,south,8.5,No
2019/08/13,00:50,0.195,0.173,0.295,0.278,0.269,0.148,0.091,south,7.1,No
2019/08/13,01:00,0.194,0.172,0.296,0.282,0.273,0.148,0.091,south,7.0,No
2019/08/13,01:10,0.192,0.172,0.300,0.279,0.272,0.148,0.091,south,7.3,No
2019/08/13,01:20,0.194,0.174,0.298,0.278,0.270,0.148,0.090,south,7.3,No
2019/08/13,01:30,0.195,0.173,0.295,0.277,0.269,0.147,0.091,south,5.9,No
2019/08/13,01:40,0.194,0.172,0.296,0.281,0.274,0.149,0.092,south-southwest,4.4,No
2019/08/13,01:50,0.192,0.172,0.299,0.280,0.273,0.149,0.091,south-southwest,4.8,No
2019/08/13,02:00,0.195,0.173,0.299,0.279,0.271,0.148,0.090,south-southwest,4.4,No
2019/08/13,02:10,0.195,0.172,0.296,0.278,0.268,0.147,0.092,south,5.1,No
2019/08/13,02:20,0.194,0.171,0.296,0.280,0.274,0.147,0.091,south,3.7,No
2019/08/13,02:30,0.191,0.174,0.299,0.280,0.272,0.148,0.091,south-southwest,2.9,No
2019/08/13,02:40,0.195,0.172,0.298,0.278,0.269,0.149,0.091,south-southwest,2.2,No
2019/08/13,02:50,0.194,0.171,0.296,0.279,0.271,0.147,0.091,south-southwest,2.4,No
2019/08/13,03:00,0.193,0.173,0.297,0.282,0.272,0.149,0.091,south-southwest,3.7,No
2019/08/13,03:10,0.194,0.174,0.300,0.280,0.271,0.148,0.090,south-southwest,3.9,No
2019/08/13,03:20,0.195,0.172,0.297,0.276,0.270,0.148,0.091,south-southwest,3.9,No
2019/08/13,03:30,0.193,0.175,0.295,0.280,0.273,0.148,0.092,south-southwest,3.2,No
2019/08/13,03:40,0.192,0.173,0.299,0.282,0.274,0.149,0.091,south-southwest,3.5,No
2019/08/13,03:50,0.195,0.172,0.298,0.280,0.270,0.147,0.091,south-southwest,3.0,No
2019/08/13,04:00,0.195,0.174,0.297,0.278,0.271,0.148,0.092,south-southwest,2.2,No
2019/08/13,04:10,0.193,0.173,0.297,0.280,0.276,0.149,0.091,southwest,3.0,No
2019/08/13,04:20,0.193,0.172,0.300,0.281,0.272,0.148,0.091,southwest,1.6,No
2019/08/13,04:30,0.195,0.174,0.297,0.278,0.269,0.148,0.092,west-southwest,2.6,No
2019/08/13,04:40,0.193,0.173,0.296,0.279,0.274,0.149,0.093,southwest,2.5,No
2019/08/13,04:50,0.192,0.173,0.299,0.280,0.274,0.148,0.091,southwest,2.7,No
2019/08/13,05:00,0.196,0.173,0.299,0.279,0.270,0.148,0.091,southwest,3.3,No
2019/08/13,05:10,0.194,0.172,0.296,0.279,0.271,0.149,0.091,southwest,4.2,No
2019/08/13,05:20,0.192,0.172,0.298,0.281,0.275,0.148,0.092,southwest,3.7,No
2019/08/13,05:30,0.194,0.173,0.298,0.278,0.273,0.148,0.090,southwest,3.4,No
2019/08/13,05:40,0.196,0.173,0.295,0.278,0.269,0.147,0.091,south-southwest,4.4,No
2019/08/13,05:50,0.192,0.172,0.296,0.280,0.270,0.149,0.092,southwest,4.1,No
2019/08/13,06:00,0.192,0.172,0.299,0.280,0.273,0.148,0.092,southwest,5.1,No
2019/08/13,06:10,0.195,0.174,0.299,0.278,0.272,0.148,0.091,south-southwest,4.5,No
2019/08/13,06:20,0.195,0.172,0.296,0.278,0.270,0.148,0.091,south-southwest,4.5,No
2019/08/13,06:30,0.193,0.171,0.293,0.278,0.268,0.148,0.090,south-southwest,2.8,No
2019/08/13,06:40,0.192,0.173,0.299,0.281,0.268,0.147,0.091,south,2.9,No
2019/08/13,06:50,0.194,0.174,0.300,0.282,0.273,0.148,0.091,south-southeast,2.2,No
2019/08/13,07:00,0.194,0.172,0.297,0.279,0.273,0.148,0.091,south-southeast,2.0,No
2019/08/13,07:10,0.194,0.172,0.296,0.278,0.272,0.148,0.091,south-southeast,0.6,No
2019/08/13,07:20,0.192,0.171,0.294,0.277,0.269,0.147,0.091,south,1.7,No
2019/08/13,07:30,0.193,0.170,0.295,0.278,0.271,0.148,0.091,south-southeast,1.8,No
2019/08/13,07:40,0.192,0.171,0.297,0.278,0.270,0.148,0.091,south-southeast,1.4,No
2019/08/13,07:50,0.192,0.172,0.295,0.279,0.271,0.149,0.091,south-southeast,2.2,No
2019/08/13,08:00,0.191,0.171,0.296,0.280,0.270,0.149,0.092,southeast,3.4,No
2019/08/13,08:10,0.193,0.171,0.296,0.279,0.270,0.148,0.091,south-southeast,3.6,No
2019/08/13,08:20,0.194,0.173,0.296,0.280,0.271,0.148,0.092,south-southeast,4.4,No
2019/08/13,08:30,0.195,0.173,0.296,0.280,0.271,0.148,0.093,south-southeast,4.0,No
2019/08/13,08:40,0.193,0.173,0.296,0.281,0.272,0.149,0.093,south-southeast,4.2,No
2019/08/13,08:50,0.194,0.172,0.297,0.279,0.272,0.149,0.092,south-southeast,4.8,No
2019/08/13,09:00,0.193,0.173,0.295,0.280,0.273,0.148,0.092,south-southeast,4.5,No
2019/08/13,09:10,0.194,0.173,0.297,0.280,0.272,0.149,0.092,south-southeast,4.0,No
2019/08/13,09:20,0.195,0.174,0.296,0.280,0.273,0.148,0.092,south-southeast,5.2,No
2019/08/13,09:30,0.194,0.173,0.296,0.280,0.274,0.149,0.091,south-southeast,4.5,No
2019/08/13,09:40,0.194,0.174,0.296,0.281,0.272,0.149,0.091,south-southeast,4.3,No
2019/08/13,09:50,0.193,0.174,0.296,0.281,0.272,0.149,0.092,south-southeast,5.1,No
2019/08/13,10:00,0.194,0.173,0.297,0.280,0.271,0.149,0.091,south-southeast,4.8,No
2019/08/13,10:10,0.193,0.174,0.297,0.281,0.273,0.150,0.092,south-southeast,5.5,No
2019/08/13,10:20,0.194,0.173,0.298,0.280,0.272,0.150,0.091,south-southeast,7.0,No
2019/08/13,10:30,0.193,0.174,0.297,0.282,0.272,0.149,0.092,south-southeast,6.3,No
2019/08/13,10:40,0.195,0.174,0.297,0.280,0.272,0.149,0.092,south-southeast,7.1,No
2019/08/13,10:50,0.194,0.173,0.297,0.282,0.273,0.149,0.091,south-southeast,6.4,No
2019/08/13,11:00,0.194,0.173,0.298,0.281,0.272,0.148,0.091,south-southeast,6.3,No
2019/08/13,11:10,0.195,0.173,0.298,0.279,0.272,0.148,0.091,south-southeast,6.2,No
2019/08/13,11:20,0.195,0.174,0.299,0.279,0.271,0.148,0.092,south-southeast,5.9,No
2019/08/13,11:30,0.195,0.173,0.298,0.279,0.271,0.147,0.090,south-southeast,4.8,No
2019/08/13,11:40,0.194,0.173,0.299,0.279,0.270,0.148,0.091,south-southeast,5.1,No
2019/08/13,11:50,0.193,0.173,0.299,0.279,0.272,0.148,0.090,south-southeast,6.2,No
2019/08/13,12:00,0.194,0.173,0.300,0.281,0.272,0.148,0.091,south-southeast,6.0,No
2019/08/13,12:10,0.194,0.174,0.299,0.281,0.272,0.147,0.091,south-southeast,7.4,No
2019/08/13,12:20,0.194,0.173,0.298,0.281,0.271,0.148,0.091,southeast,7.3,No
2019/08/13,12:30,0.194,0.173,0.300,0.280,0.271,0.148,0.091,south-southeast,7.4,No
2019/08/13,12:40,0.194,0.174,0.298,0.281,0.272,0.148,0.091,south-southeast,6.2,No
2019/08/13,12:50,0.195,0.173,0.298,0.280,0.270,0.147,0.091,southeast,3.6,No
2019/08/13,13:00,0.195,0.173,0.297,0.279,0.270,0.148,0.090,south-southeast,2.0,No
2019/08/13,13:10,0.194,0.173,0.297,0.280,0.271,0.148,0.092,southeast,0.9,No
2019/08/13,13:20,0.193,0.173,0.299,0.280,0.273,0.147,0.092,east-southeast,1.3,No
2019/08/13,13:30,0.194,0.173,0.298,0.282,0.272,0.149,0.090,east-southeast,2.9,No
2019/08/13,13:40,0.194,0.173,0.299,0.280,0.274,0.148,0.090,east-southeast,3.1,No
2019/08/13,13:50,0.194,0.173,0.297,0.280,0.272,0.149,0.092,east-southeast,2.8,No
2019/08/13,14:00,0.194,0.172,0.298,0.279,0.272,0.148,0.092,east-southeast,2.3,No
2019/08/13,14:10,0.194,0.172,0.298,0.279,0.271,0.150,0.090,east,2.7,No
2019/08/13,14:20,0.193,0.172,0.298,0.280,0.271,0.149,0.091,east,1.3,No
2019/08/13,14:30,0.194,0.173,0.299,0.280,0.271,0.148,0.091,east-southeast,1.2,No
2019/08/13,14:40,0.195,0.173,0.298,0.281,0.271,0.148,0.091,southeast,1.2,No
2019/08/13,14:50,0.194,0.173,0.298,0.280,0.272,0.148,0.091,east-southeast,1.0,No
2019/08/13,15:00,0.194,0.172,0.297,0.279,0.270,0.149,0.090,northeast,3.4,No
2019/08/13,15:10,0.194,0.173,0.296,0.279,0.270,0.148,0.091,northeast,2.7,No
2019/08/13,15:20,0.193,0.172,0.295,0.277,0.271,0.149,0.090,north-northeast,3.4,No
2019/08/13,15:30,0.192,0.172,0.295,0.279,0.270,0.149,0.091,northeast,2.1,No
2019/08/13,15:40,0.193,0.172,0.298,0.277,0.270,0.147,0.091,northeast,2.5,No
2019/08/13,15:50,0.192,0.172,0.297,0.278,0.269,0.147,0.091,northeast,2.5,No
2019/08/13,16:00,0.194,0.172,0.297,0.278,0.270,0.147,0.091,north-northeast,2.1,No
2019/08/13,16:10,0.193,0.171,0.297,0.280,0.271,0.148,0.091,northeast,2.3,No
2019/08/13,16:20,0.192,0.172,0.295,0.278,0.270,0.147,0.092,northeast,1.4,No
2019/08/13,16:30,0.192,0.172,0.297,0.279,0.271,0.148,0.090,east-northeast,1.0,No
2019/08/13,16:40,0.193,0.172,0.295,0.279,0.271,0.148,0.091,east-northeast,1.6,No
2019/08/13,16:50,0.194,0.172,0.296,0.277,0.270,0.148,0.090,east-northeast,2.0,No
2019/08/13,17:00,0.193,0.172,0.296,0.279,0.270,0.147,0.090,east-northeast,2.2,No
2019/08/13,17:10,0.193,0.172,0.296,0.277,0.272,0.148,0.090,east-northeast,2.2,No
2019/08/13,17:20,0.193,0.172,0.296,0.279,0.270,0.147,0.091,east-northeast,1.9,No
2019/08/13,17:30,0.197,0.172,0.295,0.282,0.269,0.148,0.090,east-northeast,1.4,No
2019/08/13,17:40,0.195,0.174,0.299,0.284,0.269,0.148,0.090,east-northeast,1.5,No
2019/08/13,17:50,0.195,0.173,0.302,0.281,0.270,0.148,0.090,east-northeast,0.6,No
2019/08/13,18:00,0.193,0.173,0.299,0.279,0.269,0.147,0.091,east-northeast,0.9,No
2019/08/13,18:10,0.192,0.172,0.298,0.278,0.270,0.149,0.091,east-northeast,1.0,No
2019/08/13,18:20,0.193,0.172,0.296,0.278,0.270,0.150,0.091,east,0.7,No
2019/08/13,18:30,0.196,0.173,0.295,0.281,0.274,0.149,0.091,northeast,0.9,No
2019/08/13,18:40,0.196,0.174,0.296,0.283,0.273,0.147,0.090,north-northeast,1.3,No
2019/08/13,18:50,0.194,0.174,0.300,0.281,0.273,0.149,0.089,north-northeast,1.0,No
2019/08/13,19:00,0.193,0.173,0.301,0.280,0.270,0.148,0.091,north-northeast,1.7,No
2019/08/13,19:10,0.193,0.172,0.298,0.279,0.269,0.148,0.092,north,1.9,No
2019/08/13,19:20,0.194,0.173,0.298,0.278,0.268,0.149,0.091,north-northeast,2.1,No
2019/08/13,19:30,0.197,0.173,0.296,0.280,0.273,0.149,0.091,north-northeast,2.8,No
2019/08/13,19:40,0.194,0.173,0.296,0.282,0.275,0.149,0.091,north,3.0,No
2019/08/13,19:50,0.194,0.172,0.299,0.282,0.274,0.147,0.090,north,2.8,No
2019/08/13,20:00,0.192,0.172,0.300,0.279,0.270,0.148,0.091,north,3.4,No
2019/08/13,20:10,0.193,0.172,0.298,0.278,0.270,0.148,0.090,north,2.3,No
2019/08/13,20:20,0.195,0.174,0.298,0.278,0.269,0.149,0.091,north,1.7,No
2019/08/13,20:30,0.196,0.174,0.295,0.281,0.272,0.148,0.090,north-northwest,2.1,No
2019/08/13,20:40,0.195,0.172,0.297,0.284,0.275,0.148,0.089,north-northwest,2.1,Yes
2019/08/13,20:50,0.193,0.173,0.300,0.280,0.271,0.147,0.090,north-northwest,1.5,No
2019/08/13,21:00,0.192,0.171,0.300,0.279,0.271,0.147,0.092,north,1.5,No
2019/08/13,21:10,0.193,0.175,0.297,0.277,0.269,0.149,0.092,north-northwest,1.9,No
2019/08/13,21:20,0.196,0.174,0.295,0.281,0.270,0.148,0.091,north-northwest,2.2,No
2019/08/13,21:30,0.195,0.173,0.297,0.284,0.274,0.149,0.090,north-northwest,1.8,No
2019/08/13,21:40,0.194,0.172,0.300,0.280,0.273,0.148,0.091,north-northwest,2.0,No
2019/08/13,21:50,0.191,0.172,0.300,0.280,0.271,0.148,0.091,north-northwest,2.1,No
2019/08/13,22:00,0.193,0.174,0.298,0.278,0.268,0.149,0.091,north-northwest,3.6,No
2019/08/13,22:10,0.195,0.174,0.295,0.281,0.269,0.148,0.091,northwest,3.4,No
2019/08/13,22:20,0.196,0.173,0.297,0.283,0.275,0.149,0.091,north-northwest,3.4,No
2019/08/13,22:30,0.195,0.172,0.301,0.281,0.274,0.149,0.091,north-northwest,3.5,No
2019/08/13,22:40,0.193,0.171,0.299,0.279,0.271,0.148,0.091,north-northwest,3.7,No
2019/08/13,22:50,0.192,0.174,0.297,0.277,0.269,0.148,0.091,north-northwest,3.3,No
2019/08/13,23:00,0.196,0.174,0.296,0.280,0.271,0.149,0.091,northwest,2.1,No
2019/08/13,23:10,0.196,0.173,0.298,0.284,0.274,0.149,0.090,north-northwest,2.4,Yes
2019/08/13,23:20,0.195,0.173,0.300,0.282,0.274,0.149,0.090,north-northwest,3.5,No
2019/08/13,23:30,0.194,0.173,0.300,0.280,0.271,0.148,0.092,north-northwest,2.7,No
2019/08/13,23:40,0.192,0.174,0.297,0.278,0.270,0.148,0.092,north-northwest,3.1,Yes
2019/08/13,23:50,0.195,0.174,0.296,0.281,0.272,0.149,0.091,north-northwest,2.7,Yes
